Zurück zum Katalog

COSMOS 2309

GLONASS

AktivNavigationMEO
NORAD 23513·PAYLOAD·🇷🇺 Russia

Gestartet Mar 7, 1995 von Baikonur Cosmodrome

Loading…

Nächste Überflüge (nächste 24 Stunden)

TLE

AktuellSource: Space-Track

Epoche: Sep 14, 2026, 05:03 UTC

1 23513U 95009C   26257.21091649 -.00000034  00000-0  00000-0 0  9999
2 23513  63.9472 298.1973 0039378 215.5195 133.1502  2.13052574245199

Verfolge COSMOS 2309 in Echtzeit mit AllMySat

Download on the App Store